Orbital Elements at Epoch 2459200.5 (2020-Dec-17.0) TDB
Reference: JPL 29 (heliocentric ecliptic J2000)
Element | Value | Uncertainty (1-sigma) | Units |
e | .1904798243053403 | 1.6201e-08 | |
a | 2.635513704971409 | 1.2194e-08 | au |
q | 2.133501517494139 | 4.7873e-08 | au |
i | 11.64862975930136 | 3.5126e-07 | deg |
node | 288.576774885686 | 3.0422e-06 | deg |
peri | 76.2040330582319 | 5.951e-06 | deg |
M | 294.8904545366792 | 8.2839e-06 | deg |
tp | 2459483.143178267047 (2021-Sep-25.64317827) | 3.7043e-05 | TDB |
period | 1562.774604738383 4.28 | 1.0846e-05 2.969e-08 | d yr |
n | .2303595149988159 | 1.5988e-09 | deg/d |
Q | 3.13752589244868 | 1.4517e-08 | au |
|
| | Orbit Determination Parameters
Additional Information
|